STARLINK-35921, 66640

Orbit data source: Space-Track

STARLINK-35921, 66640 is a payload satellite owned by SpaceX/Seattle (US) in LEO that was launched on Sun, 23 Nov 2025 UTC via an FALCON 9 launch vehicle from the Air Force Western Test Range (AFWTR). Payload-class satellites include a variety of spacecraft equipped with specific instruments for various scientific and technological missions. These include communications satellites like Starlink; space stations such as the ISS; scientific satellites like the Hubble; Earth observation satellites from companies like Planet Labs, Umbra, and HawkEye 360; GPS; miniature CubeSats for education and research; and military/defense satellites.

Loading next visibility...
Identifier
66640, 2025-271Z
Orbit
LEO
Country
Flag of USUS
Related business
Manufacturer
SpaceX/Seattle
Mission
Operational Commercial Communications
Bus & Motor
STARLINK V2MO, Unknown motor
Mass
575 kg wet, ~530 kg dry
Launch date (UTC)
2025-11-23 (2 months ago)
Launch vehicle
FALCON 9
Launch site
Air Force Western Test Range (AFWTR)
Object type
Payload
Rocket body
Debris
Shape & HBR
Box + 2 Pan, 17.7 m
Radar Cross Section
36.964 m²

Expand to show TLE details & history
Last TLE update: 6 hours ago

TLE from 6 hours ago
0 STARLINK-35921
1 66640U 25271Z   26037.09483335  .00035231  00000-0  11962-2 0  9997
2 66640  53.1589 286.3864 0001349  67.5793 292.5351 15.30193371 12739
Epoch: 2026-02-06T02:16Z
TLE epoch observation values (Epoch: 2026-02-06T02:16:33.601Z)
Latitude
0.00002°
Longitude
116.00877°
Altitude
475.78 km
Speed
7.629 km/s
True Right ascension
19h 05m 32s
True Declination
0° 00' 00"
Sunlit
Object was in daylight at epoch
Visualization orbit readout
Latitude
Unknown
Longitude
Unknown
Altitude
Unknown
Speed
Unknown
Apparent Right ascension
Unknown
Apparent Declination
Unknown
Sunlit
N/A
Visualization observer readout
Local Sidereal Time
10:34:36
Azimuth
Unknown
Elevation
Unknown
Doppler factor
Unknown
Orbital elements
Apogee altitude
476.416 km
Perigee altitude
474.567 km
Semi-major axis
6,853.628 km
Eccentricity
0.00013
Inclination
53.1589°
RAAN
286.3864°
Arg. of periapsis
67.5793°
True anomaly
292.52082°
Mean anomaly
292.5351°
Eccentric anomaly
292.52796°
Mean motion
3.82527 °/min
Orbital period
94.11 mins
BSTAR
0.0011962
Loading maneuver chart data...
Computing Atmospheric mass density...
Loading historical data...
Loading historical data...
Loading historical data...
Loading historical data...
Loading historical data...
Loading historical data...
Loading historical data...

Documentation

Showing up to 5 results
|